User: anonymous   Login
Location: Nians�bougou
(13.2321°N, 4.9818°W)
Time: 19:27:34
(UTC+00:00)
Language:

STARLINK-1033 - Orbit

View from above orbital plane
View from above orbital plane
View from above satellite
View from above satellite

Ground track
Ground track

The orbit data is extracted from the following two-line orbital elements,

1 44738U 19074AB  20158.58334491 -.00026381 +00000-0 -17967-2 0  9994
2 44738 052.9968 283.3501 0001240 106.7579 222.2696 15.05610134001760
Epoch (UTC): 06 June 2020 14:00:01
Eccentricity: 0.0001240
inclination: 52.9968°
perigee height: 549 km
apogee height: 550 km
right ascension of ascending node: 283.3501°
argument of perigee: 106.7579°
revolutions per day: 15.05610134
mean anomaly at epoch: 222.2696°
orbit number at epoch: 176

The dashed part of the orbit path shows where the satellite is in the earth's shadow,  

DLR